[Date Prev][Date Next][Thread Prev][Thread Next] - [Date Index][Thread Index][Author Index]
2 Line ISS Keps 1-19
- Subject: [sarex] 2 Line ISS Keps 1-19
- From: "Dave Larsen PhD" <doc@xxxxxxxxxxx>
- Date: Mon, 19 Jan 2004 01:41:43 -0800
ISS
1 25544U 98067A 04019.16782502 .00023600 00000-0 23037-3 0 388
2 25544 51.6303 9.2314 0007990 67.1686 350.4165 15.66040056294785
----
Via the sarex mailing list at AMSAT.ORG courtesy of AMSAT-NA.
To unsubscribe, send "unsubscribe sarex" to Majordomo@amsat.org
AMSAT Home